EW3370 Weather Reports


Display with metric or nautical units.
time (UTC)temp
F
wind
direction
speed
MPH
gust
MPH
rain 1hr
in
rain 24hr
in
rain mn
in
humidity
%
barometer
mb
20260509005020 68 298 4.0 7.0 0.00 0.00 0.00 77 1013.0
20260509004529 68 288 4.0 6.0 0.00 0.00 0.00 76 1013.1
20260509004035 69 236 4.0 7.0 0.00 0.00 0.00 76 1013.0
20260509003538 69 296 4.0 7.0 0.00 0.00 0.00 75 1013.0
20260509003021 70 291 3.0 8.0 0.00 0.00 0.00 74 1012.9
20260509002539 70 306 4.0 8.0 0.00 0.00 0.00 73 1012.9
20260509002035 70 290 3.0 6.0 0.00 0.00 0.00 73 1012.9
20260509001558 71 326 3.0 7.0 0.00 0.00 0.00 73 1012.9
20260509001021 70 273 3.0 10.0 0.00 0.00 0.00 73 1013.0
20260509000524 70 310 4.0 10.0 0.00 0.00 0.00 73 1013.0
20260509000030 70 342 3.0 10.0 0.00 0.00 0.00 73 1013.1
20260508235531 70 284 5.0 10.0 0.00 0.00 0.00 73 1013.1
20260508235036 70 248 4.0 9.0 0.00 0.00 0.00 73 1013.1
20260508234520 70 279 4.0 10.0 0.00 0.00 0.00 74 1013.2
20260508234020 70 284 5.0 10.0 0.00 0.00 0.00 74 1013.3
20260508233523 70 309 5.0 11.0 0.00 0.00 0.00 74 1013.3
20260508233054 70 265 5.0 12.0 0.00 0.00 0.00 73 1013.3
20260508232520 70 322 5.0 12.0 0.00 0.00 0.00 73 1013.3
20260508232024 71 277 5.0 11.0 0.00 0.00 0.00 73 1013.4
20260508231525 71 339 6.0 11.0 0.00 0.00 0.00 72 1013.4
20260508231048 72 331 5.0 10.0 0.00 0.00 0.00 72 1013.5
20260508230537 71 327 4.0 10.0 0.00 0.00 0.00 72 1013.6
20260508230021 71 286 3.0 12.0 0.00 0.00 0.00 72 1013.5
20260508225548 71 314 5.0 12.0 0.00 0.00 0.00 72 1013.5
20260508225034 72 323 4.0 11.0 0.00 0.00 0.00 72 1013.6
20260508224517 72 351 5.0 11.0 0.00 0.00 0.00 72 1013.6
20260508224023 72 327 5.0 11.0 0.00 0.00 0.00 71 1013.7
20260508223527 72 288 5.0 11.0 0.00 0.00 0.00 70 1013.7
20260508223032 72 261 5.0 10.0 0.00 0.00 0.00 70 1013.8
20260508222520 72 297 5.0 11.0 0.00 0.00 0.00 70 1013.8
20260508222024 72 308 7.0 11.0 0.00 0.00 0.00 69 1013.8
20260508221529 72 286 6.0 11.0 0.00 0.00 0.00 69 1013.9
20260508221039 73 287 5.0 10.0 0.00 0.00 0.00 69 1013.9
20260508220523 73 263 6.0 10.0 0.00 0.00 0.00 69 1013.9
20260508220051 73 270 5.0 12.0 0.00 0.00 0.00 69 1013.9
20260508215601 72 321 4.0 12.0 0.00 0.00 0.00 70 1014.1
20260508215022 72 327 5.0 11.0 0.00 0.00 0.00 70 1014.1
20260508214549 72 277 4.0 12.0 0.00 0.00 0.00 71 1014.1
20260508214031 72 331 6.0 12.0 0.00 0.00 0.00 70 1014.2
20260508213535 72 282 5.0 12.0 0.00 0.00 0.00 70 1014.2
20260508213027 72 274 7.0 12.0 0.00 0.00 0.00 70 1014.2
20260508212531 72 294 5.0 12.0 0.00 0.00 0.00 69 1014.3
20260508212037 72 197 6.0 12.0 0.00 0.00 0.00 70 1014.2
20260508211524 73 276 6.0 9.0 0.00 0.00 0.00 69 1014.3
20260508211029 73 313 4.0 9.0 0.00 0.00 0.00 69 1014.2
20260508210535 73 304 4.0 9.0 0.00 0.00 0.00 70 1014.3
20260508210020 72 286 4.0 10.0 0.00 0.00 0.00 71 1014.2
20260508205526 71 300 5.0 11.0 0.00 0.00 0.00 71 1014.3
20260508205035 72 290 6.0 14.0 0.00 0.00 0.00 70 1014.3
20260508204520 72 320 6.0 14.0 0.00 0.00 0.00 69 1014.3
20260508204027 72 305 6.0 12.0 0.00 0.00 0.00 69 1014.4
20260508203533 72 311 5.0 12.0 0.00 0.00 0.00 69 1014.3
20260508203039 73 265 5.0 11.0 0.00 0.00 0.00 69 1014.4
20260508202523 73 229 4.0 11.0 0.00 0.00 0.00 69 1014.4
20260508202031 73 314 4.0 9.0 0.00 0.00 0.00 69 1014.5
20260508201555 73 303 4.0 11.0 0.00 0.00 0.00 69 1014.5
20260508201038 72 258 5.0 11.0 0.00 0.00 0.00 70 1014.5
20260508200520 72 264 4.0 10.0 0.00 0.00 0.00 70 1014.5
20260508200025 72 316 5.0 10.0 0.00 0.00 0.00 70 1014.6
20260508195527 72 260 6.0 10.0 0.00 0.00 0.00 70 1014.6
20260508195029 72 240 5.0 11.0 0.00 0.00 0.00 70 1014.7
20260508194538 72 235 4.0 11.0 0.00 0.00 0.00 71 1014.8
20260508194043 72 263 5.0 10.0 0.00 0.00 0.00 70 1014.8
20260508193526 72 288 3.0 10.0 0.00 0.00 0.00 70 1014.7
20260508193029 72 263 4.0 10.0 0.00 0.00 0.00 71 1014.8
20260508192528 72 298 4.0 11.0 0.00 0.00 0.00 70 1014.9
20260508192038 72 263 5.0 11.0 0.00 0.00 0.00 71 1015.0
20260508191521 72 284 5.0 10.0 0.00 0.00 0.00 70 1015.1
20260508191023 72 269 4.0 11.0 0.00 0.00 0.00 71 1015.2
20260508190526 72 322 5.0 11.0 0.00 0.00 0.00 72 1015.2
20260508190024 72 269 5.0 9.0 0.00 0.00 0.00 71 1015.2
20260508185533 72 236 5.0 9.0 0.00 0.00 0.00 71 1015.3
20260508185020 72 281 4.0 10.0 0.00 0.00 0.00 71 1015.3
20260508184521 72 238 4.0 10.0 0.00 0.00 0.00 72 1015.4
20260508184025 71 263 6.0 10.0 0.00 0.00 0.00 72 1015.3
20260508183530 72 236 4.0 9.0 0.00 0.00 0.00 72 1015.4
20260508183036 71 290 4.0 8.0 0.00 0.00 0.00 72 1015.4
20260508182538 71 292 3.0 10.0 0.00 0.00 0.00 72 1015.4
20260508182044 71 251 3.0 10.0 0.00 0.00 0.00 72 1015.4
20260508181523 71 259 4.0 9.0 0.00 0.00 0.00 72 1015.5
20260508181051 71 250 2.0 7.0 0.00 0.00 0.00 73 1015.5
20260508180536 70 293 2.0 6.0 0.00 0.00 0.00 74 1015.6
20260508180017 70 281 3.0 6.0 0.00 0.00 0.00 74 1015.6
20260508175521 69 270 3.0 6.0 0.00 0.00 0.00 76 1015.6
20260508175022 69 254 2.0 5.0 0.00 0.00 0.00 76 1015.7
20260508174550 68 251 3.0 5.0 0.00 0.00 0.00 77 1015.7
20260508174100 68 270 1.0 5.0 0.00 0.00 0.00 78 1015.7
20260508173524 68 257 2.0 6.0 0.00 0.00 0.00 78 1015.7
20260508173019 67 301 2.0 6.0 0.00 0.00 0.00 79 1015.8
20260508172547 67 248 1.0 6.0 0.00 0.00 0.00 79 1015.8
20260508172018 67 262 2.0 6.0 0.00 0.00 0.00 79 1015.9
20260508171521 66 300 1.0 3.0 0.00 0.00 0.00 80 1015.8
20260508171024 66 303 0.0 3.0 0.00 0.00 0.00 80 1015.8
20260508170525 66 303 0.0 3.0 0.00 0.00 0.00 80 1015.8
20260508170028 66 31 0.0 3.0 0.00 0.00 0.00 81 1015.9
20260508165531 66 31 0.0 3.0 0.00 0.00 0.00 80 1015.9
20260508165033 66 29 0.0 3.0 0.00 0.00 0.00 81 1016.0
20260508164521 65 28 0.0 3.0 0.00 0.00 0.00 81 1016.0
20260508164025 65 38 0.0 2.0 0.00 0.00 0.00 81 1016.0
20260508163536 65 38 1.0 2.0 0.00 0.00 0.00 81 1016.0
20260508163041 65 74 0.0 1.0 0.00 0.00 0.00 82 1016.0
20260508162545 65 74 0.0 1.0 0.00 0.00 0.00 83 1016.0
20260508162029 65 74 0.0 1.0 0.00 0.00 0.00 83 1016.0
20260508161520 64 74 0.0 3.0 0.00 0.00 0.00 83 1016.1
20260508161021 64 74 1.0 3.0 0.00 0.00 0.00 83 1016.0
20260508160523 64 74 0.0 1.0 0.00 0.00 0.00 84 1016.1
20260508160027 64 74 0.0 1.0 0.00 0.00 0.00 84 1016.0
20260508155530 64 74 0.0 1.0 0.00 0.00 0.00 84 1016.0
20260508155036 63 74 0.0 2.0 0.00 0.00 0.00 85 1016.1
20260508154521 63 74 0.0 2.0 0.00 0.00 0.00 85 1016.0
20260508154024 63 74 0.0 1.0 0.00 0.00 0.00 85 1016.0
20260508153527 63 74 0.0 0.0 0.00 0.00 0.00 85 1016.1
20260508153036 63 74 0.0 3.0 0.00 0.00 0.00 85 1016.1
20260508152540 63 74 0.0 3.0 0.00 0.00 0.00 85 1016.2
20260508152025 63 74 1.0 4.0 0.00 0.00 0.00 85 1016.1
20260508151525 63 75 2.0 4.0 0.00 0.00 0.00 86 1016.1
20260508151027 63 73 1.0 4.0 0.00 0.00 0.00 86 1016.0
20260508150529 63 65 2.0 4.0 0.00 0.00 0.00 86 1016.0
20260508150029 63 61 0.0 3.0 0.00 0.00 0.00 86 1016.1
20260508145557 63 61 1.0 3.0 0.00 0.00 0.00 86 1016.0
20260508145017 63 60 0.0 3.0 0.00 0.00 0.00 86 1016.0
20260508144524 63 60 2.0 4.0 0.00 0.00 0.00 86 1016.0
20260508144044 62 61 2.0 4.0 0.00 0.00 0.00 87 1016.0
20260508143528 62 63 2.0 4.0 0.00 0.00 0.00 87 1015.9
20260508143034 62 64 1.0 3.0 0.00 0.00 0.00 87 1016.0
20260508142537 62 63 1.0 3.0 0.00 0.00 0.00 87 1016.0
20260508142020 62 63 1.0 3.0 0.00 0.00 0.00 87 1015.9
20260508141526 62 63 0.0 4.0 0.00 0.00 0.00 87 1015.9
20260508141030 62 63 0.0 4.0 0.00 0.00 0.00 87 1015.8
20260508140521 62 63 2.0 5.0 0.00 0.00 0.00 87 1015.8
20260508140019 62 63 3.0 5.0 0.00 0.00 0.00 87 1015.8
20260508135545 62 355 1.0 3.0 0.00 0.00 0.00 87 1015.6
20260508135028 62 351 2.0 3.0 0.00 0.00 0.00 87 1015.7
20260508134532 62 346 1.0 4.0 0.00 0.00 0.00 87 1015.7
20260508134100 62 346 0.0 4.0 0.00 0.00 0.00 88 1015.6
20260508133519 62 222 1.0 3.0 0.00 0.00 0.00 88 1015.6
20260508133035 62 222 1.0 2.0 0.00 0.00 0.00 88 1015.6
20260508132542 62 222 0.0 2.0 0.00 0.00 0.00 88 1015.5
20260508132025 62 222 0.0 2.0 0.00 0.00 0.00 88 1015.4
20260508131530 62 222 0.0 1.0 0.00 0.00 0.00 87 1015.5
20260508131017 62 222 0.0 1.0 0.00 0.00 0.00 87 1015.5
20260508130523 62 222 0.0 1.0 0.00 0.00 0.00 87 1015.4
20260508130027 62 222 0.0 1.0 0.00 0.00 0.00 87 1015.4
20260508125531 62 222 0.0 1.0 0.00 0.00 0.00 87 1015.3
20260508125056 62 222 0.0 3.0 0.00 0.00 0.00 87 1015.3
20260508124519 62 222 0.0 3.0 0.00 0.00 0.00 87 1015.3
20260508124028 62 222 0.0 2.0 0.00 0.00 0.00 87 1015.2
20260508123534 62 222 0.0 2.0 0.00 0.00 0.00 87 1015.3
20260508123039 62 222 0.0 2.0 0.00 0.00 0.00 87 1015.3
20260508122523 62 222 0.0 2.0 0.00 0.00 0.00 87 1015.2
20260508122023 62 222 0.0 1.0 0.00 0.00 0.00 87 1015.2
20260508121522 62 222 0.0 2.0 0.00 0.00 0.00 87 1015.2
20260508121048 62 222 0.0 2.0 0.00 0.00 0.00 87 1015.2
20260508120532 62 222 0.0 2.0 0.00 0.00 0.00 87 1015.2
20260508120031 62 222 0.0 2.0 0.00 0.00 0.00 87 1015.2
20260508115536 62 222 0.0 2.0 0.00 0.00 0.00 87 1015.2
20260508115021 62 222 0.0 1.0 0.00 0.00 0.00 87 1015.1
20260508114549 62 222 0.0 2.0 0.00 0.00 0.00 87 1015.1
20260508114030 62 222 0.0 2.0 0.00 0.00 0.00 87 1015.1
20260508113536 62 222 0.0 2.0 0.00 0.00 0.00 87 1015.1
20260508113037 62 222 0.0 4.0 0.00 0.00 0.00 87 1015.1
20260508112519 62 222 1.0 4.0 0.00 0.00 0.00 87 1015.1
20260508112025 62 213 1.0 3.0 0.00 0.00 0.00 88 1015.2
20260508111531 62 213 0.0 1.0 0.00 0.00 0.00 88 1015.2
20260508111036 62 212 0.0 1.0 0.00 0.00 0.00 88 1015.2
20260508110521 62 212 0.0 1.0 0.00 0.00 0.00 88 1015.1
20260508110046 62 212 0.0 1.0 0.00 0.00 0.00 88 1015.0
20260508105551 62 212 0.0 0.0 0.00 0.00 0.00 88 1015.1
20260508105020 62 212 0.0 2.0 0.00 0.00 0.00 87 1015.0
20260508104522 62 212 0.0 2.0 0.00 0.00 0.00 87 1015.0
20260508104047 62 212 0.0 2.0 0.00 0.00 0.00 87 1015.1
20260508103536 62 212 0.0 2.0 0.00 0.00 0.00 87 1015.1
20260508103021 62 212 0.0 4.0 0.00 0.00 0.00 87 1015.0
20260508102526 62 212 1.0 4.0 0.00 0.00 0.00 87 1015.1
20260508102032 62 211 0.0 3.0 0.00 0.00 0.00 87 1015.1
20260508101520 62 211 0.0 3.0 0.00 0.00 0.00 87 1015.1
20260508101023 62 211 1.0 3.0 0.00 0.00 0.00 87 1015.1
20260508100548 62 119 0.0 0.0 0.00 0.00 0.00 87 1015.1
20260508100031 62 119 0.0 3.0 0.00 0.00 0.00 87 1015.2
20260508095536 62 119 0.0 3.0 0.00 0.00 0.00 87 1015.2
20260508095043 62 119 0.0 2.0 0.00 0.00 0.00 87 1015.2
20260508094524 62 119 0.0 2.0 0.00 0.00 0.00 87 1015.1
20260508094048 62 119 0.0 1.0 0.00 0.00 0.00 87 1015.1
20260508093530 62 119 0.0 1.0 0.00 0.00 0.00 87 1015.1
20260508093028 62 119 0.0 2.0 0.00 0.00 0.00 87 1015.2
20260508092536 62 119 0.0 2.0 0.00 0.00 0.00 87 1015.2
20260508092022 63 119 0.0 0.0 0.00 0.00 0.00 87 1015.3
20260508091523 63 119 0.0 1.0 0.00 0.00 0.00 86 1015.2
20260508091050 63 119 0.0 2.0 0.00 0.00 0.00 86 1015.3
20260508090519 63 119 0.0 3.0 0.00 0.00 0.00 87 1015.2
20260508090028 63 119 1.0 3.0 0.00 0.00 0.00 86 1015.3
20260508085537 63 119 0.0 3.0 0.00 0.00 0.00 86 1015.3
20260508085021 63 118 0.0 1.0 0.00 0.00 0.00 86 1015.3
20260508084524 63 118 0.0 0.0 0.00 0.00 0.00 86 1015.3
20260508084033 63 118 0.0 0.0 0.00 0.00 0.00 86 1015.5
20260508083557 63 118 0.0 1.0 0.00 0.00 0.00 86 1015.5
20260508083022 63 118 0.0 1.0 0.00 0.00 0.00 86 1015.5
20260508082525 63 118 0.0 1.0 0.00 0.00 0.00 86 1015.6
20260508082026 63 118 0.0 2.0 0.00 0.00 0.00 86 1015.7
20260508081533 63 118 0.0 3.0 0.00 0.00 0.00 86 1015.6
20260508081057 63 118 1.0 3.0 0.00 0.00 0.00 86 1015.7
20260508080520 63 120 1.0 2.0 0.00 0.00 0.00 86 1015.8
20260508080027 63 120 0.0 1.0 0.00 0.00 0.00 86 1015.9
20260508075536 63 120 0.0 3.0 0.00 0.00 0.00 86 1015.8
20260508075019 62 120 0.0 4.0 0.00 0.00 0.00 86 1015.8
20260508074544 62 119 0.0 4.0 0.00 0.00 0.00 86 1015.8
20260508074046 62 120 2.0 4.0 0.00 0.00 0.00 86 1015.8
20260508073523 62 194 1.0 2.0 0.00 0.00 0.00 86 1015.8
20260508073025 62 234 1.0 2.0 0.00 0.00 0.00 86 1015.8
20260508072531 62 234 0.0 0.0 0.00 0.00 0.00 86 1015.9
20260508072018 62 234 0.0 2.0 0.00 0.00 0.00 86 1016.0
20260508071519 62 234 0.0 2.0 0.00 0.00 0.00 86 1016.0
20260508071023 62 234 0.0 2.0 0.00 0.00 0.00 86 1016.0
20260508070528 62 234 0.0 2.0 0.00 0.00 0.00 86 1015.9
20260508070056 62 234 0.0 2.0 0.00 0.00 0.00 86 1015.9
20260508065537 62 234 1.0 2.0 0.00 0.00 0.00 86 1016.0
20260508065040 62 234 0.0 4.0 0.00 0.00 0.00 86 1016.0
20260508064525 62 234 1.0 4.0 0.00 0.00 0.00 86 1016.0
20260508064028 62 234 0.0 3.0 0.00 0.00 0.00 86 1016.0
20260508063531 62 234 1.0 3.0 0.00 0.00 0.00 86 1016.0
20260508063029 62 234 0.0 3.0 0.00 0.00 0.00 86 1016.0
20260508062534 62 234 0.0 1.0 0.00 0.00 0.00 86 1016.0
20260508062021 63 234 0.0 2.0 0.00 0.00 0.00 86 1016.1
20260508061543 63 234 0.0 2.0 0.00 0.00 0.00 86 1016.1
20260508061024 63 234 0.0 2.0 0.00 0.00 0.00 86 1016.0
20260508060526 63 234 0.0 4.0 0.00 0.00 0.00 86 1016.1
20260508060028 63 234 1.0 4.0 0.00 0.00 0.00 86 1016.1
20260508055526 63 234 0.0 4.0 0.00 0.00 0.00 86 1016.1
20260508055046 63 234 1.0 4.0 0.00 0.00 0.00 86 1016.1
20260508054550 63 250 0.0 3.0 0.00 0.00 0.00 86 1016.0
20260508054028 63 250 1.0 3.0 0.00 0.00 0.00 86 1016.0
20260508053527 63 250 1.0 2.0 0.00 0.00 0.00 86 1016.0
20260508053026 63 250 0.0 2.0 0.00 0.00 0.00 86 1016.1
20260508052535 63 250 0.0 3.0 0.00 0.00 0.00 86 1016.1
20260508052023 63 250 0.0 3.0 0.00 0.00 0.00 86 1016.1
20260508051522 63 250 1.0 3.0 0.00 0.00 0.00 86 1016.0
20260508051028 63 250 1.0 3.0 0.00 0.00 0.00 86 1016.1
20260508050537 63 250 2.0 4.0 0.00 0.00 0.00 86 1016.1
20260508050058 63 252 2.0 4.0 0.00 0.00 0.00 86 1016.0
20260508045546 63 251 1.0 3.0 0.00 0.00 0.00 86 1016.1
20260508045027 63 251 1.0 3.0 0.00 0.00 0.00 86 1016.0
20260508044547 63 254 1.0 3.0 0.00 0.00 0.00 86 1016.0
20260508044025 63 254 0.0 3.0 0.00 0.00 0.00 86 1015.9
20260508043527 63 254 2.0 3.0 0.00 0.00 0.00 86 1015.9
20260508043033 63 254 0.0 4.0 0.00 0.00 0.00 86 1015.8
20260508042539 63 254 2.0 4.0 0.00 0.00 0.00 86 1015.7
20260508042028 63 254 1.0 3.0 0.00 0.00 0.00 86 1015.7
20260508041531 63 254 1.0 3.0 0.00 0.00 0.00 86 1015.5
20260508041032 63 254 0.0 2.0 0.00 0.00 0.00 86 1015.4
20260508040538 63 254 0.0 4.0 0.00 0.00 0.00 86 1015.4
20260508040046 63 254 2.0 5.0 0.00 0.00 0.00 86 1015.4
20260508035526 63 252 1.0 5.0 0.00 0.00 0.00 86 1015.3
20260508035025 63 252 0.0 5.0 0.00 0.00 0.00 85 1015.2
20260508034551 63 256 1.0 5.0 0.00 0.00 0.00 86 1015.1
20260508034036 63 254 1.0 4.0 0.00 0.00 0.00 85 1015.1
20260508033520 63 270 1.0 5.0 0.00 0.00 0.00 85 1015.0
20260508033021 63 280 0.0 5.0 0.00 0.00 0.00 85 1014.9
20260508032550 63 286 2.0 5.0 0.00 0.00 0.00 85 1014.8
20260508032037 63 258 1.0 4.0 0.00 0.00 0.00 85 1014.6
20260508031521 63 263 2.0 6.0 0.00 0.00 0.00 85 1014.6
20260508031026 63 281 1.0 6.0 0.00 0.00 0.00 85 1014.5
20260508030552 63 258 2.0 5.0 0.00 0.00 0.00 85 1014.5
20260508030032 63 290 2.0 5.0 0.00 0.00 0.00 85 1014.5
20260508025522 63 266 1.0 5.0 0.00 0.00 0.00 85 1014.5
20260508025025 63 267 1.0 4.0 0.00 0.00 0.00 85 1014.5
20260508024527 63 284 1.0 3.0 0.00 0.00 0.00 85 1014.4
20260508024024 63 284 1.0 4.0 0.00 0.00 0.00 84 1014.3
20260508023550 63 285 1.0 4.0 0.00 0.00 0.00 84 1014.3
20260508023056 63 264 1.0 4.0 0.00 0.00 0.00 84 1014.2
20260508022553 64 251 1.0 4.0 0.00 0.00 0.00 83 1014.2
20260508022035 64 252 1.0 6.0 0.00 0.00 0.00 83 1014.2
20260508021532 64 313 0.0 6.0 0.00 0.00 0.00 83 1014.2
20260508021031 64 256 2.0 4.0 0.00 0.00 0.00 82 1014.2
20260508020553 64 239 0.0 5.0 0.00 0.00 0.00 82 1014.2
20260508020037 64 239 2.0 5.0 0.00 0.00 0.00 82 1014.1
20260508015520 64 224 2.0 5.0 0.00 0.00 0.00 82 1014.1
20260508015027 64 224 2.0 5.0 0.00 0.00 0.00 82 1014.1
20260508014534 64 313 1.0 5.0 0.00 0.00 0.00 81 1014.1
20260508014019 65 265 3.0 7.0 0.00 0.00 0.00 81 1014.1
20260508013529 65 275 3.0 7.0 0.00 0.00 0.00 81 1014.1
20260508013030 65 243 1.0 5.0 0.00 0.00 0.00 81 1014.1
20260508012538 65 244 2.0 5.0 0.00 0.00 0.00 81 1014.1
20260508012021 65 232 1.0 5.0 0.00 0.00 0.00 80 1014.0
20260508011601 65 234 2.0 6.0 0.00 0.00 0.00 80 1014.0
20260508011023 66 285 3.0 6.0 0.00 0.00 0.00 80 1014.1
20260508010528 66 215 1.0 5.0 0.00 0.00 0.00 80 1014.1
20260508010032 66 250 2.0 5.0 0.00 0.00 0.00 79 1014.1
20260508005531 66 252 1.0 5.0 0.00 0.00 0.00 79 1014.1